RH
15 23 25 25 24 32 32 28 31 36 35 32 33 39 44 53 51 49 53 54 42 37 38 45 42 31 25 31 44 42 37 30 28 31 32 29 23 16 14 14 18 21 24 26 26 27 29 33 35
12 22 26 28 29 29 22 29 35 29 30 29 32 39 44 50 51 49 51 50 48 43 39 47 53 45 31 35 43 47 39 31 28 33 31 29 22 19 18 17 18 23 24 23 28 24 26 26 28
12 22 25 29 35 30 25 29 27 26 28 31 33 37 46 49 50 51 48 48 47 44 43 46 54 55 48 37 43 50 42 33 28 32 32 31 22 22 20 20 23 25 25 26 31 29 31 29 29
20 25 24 34 34 30 27 25 20 22 29 33 36 38 44 44 45 48 50 53 52 47 44 45 53 58 56 45 47 47 40 35 28 28 32 32 27 25 23 22 21 26 26 27 30 27 29 27 29
21 19 26 29 27 25 21 18 18 19 29 36 37 41 47 46 48 44 49 56 59 57 54 53 55 60 62 62 53 53 39 34 29 33 36 28 29 28 28 28 26 30 31 29 30 27 24 27 25
16 17 22 22 20 18 19 16 18 18 24 30 39 44 50 48 48 51 52 60 62 63 64 67 67 69 68 71 68 56 47 31 31 32 36 29 33 37 41 39 31 34 34 29 27 22 20 22 25
16 19 21 22 23 21 17 18 19 19 20 24 31 44 44 48 51 52 55 57 68 72 71 69 80 72 75 80 73 65 54 43 38 31 32 45 45 51 51 44 36 40 34 28 26 21 19 20 23
19 23 27 25 20 18 17 20 21 21 23 22 26 33 45 49 51 51 53 59 68 75 77 79 71 80 79 86 88 76 64 58 50 37 40 56 65 58 55 48 45 41 32 29 29 24 23 22 22
20 26 28 24 20 18 19 21 22 21 22 24 25 27 31 38 47 47 49 52 57 72 76 77 78 76 83 83 89 92 81 67 58 47 45 53 68 60 55 50 50 42 30 26 28 27 23 20 19
21 23 22 20 18 17 19 21 22 23 24 23 25 27 29 33 37 37 44 46 51 58 76 81 74 84 86 92 89 92 97 85 64 52 48 45 53 53 50 54 51 41 30 25 25 23 22 19 18
23 22 20 19 19 19 21 25 26 27 29 30 30 29 27 30 37 38 36 40 45 47 56 71 74 72 78 87 92 89 88 98 82 57 50 43 37 42 49 59 53 41 29 26 25 25 25 23 20
23 23 23 24 24 24 27 28 29 31 33 34 36 36 35 32 29 33 36 36 39 38 39 45 56 60 54 57 78 82 90 98 92 65 55 42 34 44 56 56 50 42 31 26 27 28 30 23 21
26 25 25 25 26 27 28 30 32 35 38 39 41 42 42 40 38 33 29 27 29 35 35 37 39 41 44 41 59 59 80 99 90 75 60 42 37 49 56 52 43 40 31 29 30 34 34 26 25
25 25 25 25 23 25 28 32 34 39 42 44 46 47 44 44 42 41 35 29 26 24 26 31 34 40 40 42 58 74 90 98 90 80 66 44 40 49 56 49 40 40 29 31 35 38 38 34 28
25 25 24 23 23 25 29 33 38 39 43 47 49 49 48 48 47 44 41 39 33 28 22 22 38 42 45 50 64 91 98 98 96 85 67 43 41 52 52 49 45 39 31 36 40 42 42 38 35
23 22 23 21 23 27 30 34 36 40 43 48 53 53 52 50 49 50 47 42 41 35 27 26 36 45 57 61 64 84 96 98 97 87 71 47 47 53 58 56 46 38 36 40 43 44 46 44 40
23 24 23 22 22 27 30 32 35 38 43 47 47 46 45 46 50 49 48 44 41 38 35 30 36 45 57 59 59 83 93 92 97 92 67 47 51 62 67 53 45 40 41 43 46 49 50 47 46
22 24 24 24 23 27 30 32 34 40 44 46 46 51 54 55 55 52 47 42 42 39 39 36 35 49 67 67 77 75 81 91 92 88 62 53 55 69 64 54 50 43 44 47 50 52 54 53 51
23 23 25 23 25 32 35 36 35 42 48 52 53 58 62 62 62 63 56 46 45 44 42 41 36 46 57 71 74 84 86 94 95 76 59 62 70 80 65 50 48 47 45 47 53 56 60 59 58
24 24 25 24 28 30 34 40 40 45 51 57 63 68 62 56 54 52 59 54 51 49 49 44 40 43 61 68 74 79 88 92 93 79 74 77 82 92 88 73 61 51 46 49 52 55 61 63 62
23 24 24 27 28 31 35 37 40 45 49 57 70 67 64 65 66 62 54 62 55 51 55 53 47 48 57 65 68 78 85 93 92 91 88 88 91 85 87 86 79 68 52 50 51 52 58 60 62
23 22 25 27 32 40 38 51 39 45 47 65 66 59 75 72 73 64 65 67 60 54 62 57 59 61 65 74 78 78 81 92 93 98 98 96 99 89 88 85 83 74 65 53 50 53 55 56 59
22 25 29 32 35 41 42 49 39 43 46 64 64 75 77 72 71 72 73 66 60 64 66 68 60 68 74 80 79 75 78 83 97 93 90 88 96 97 97 94 89 78 66 57 52 53 54 56 61
23 30 34 42 46 53 43 46 43 42 47 64 67 73 79 76 82 81 77 72 69 65 66 64 59 63 57 62 61 62 65 70 81 74 74 89 94 91 93 94 90 81 71 64 58 55 59 67 67
28 35 46 38 53 50 43 49 38 37 47 61 65 73 82 81 81 85 84 81 75 75 74 67 64 63 56 56 59 62 66 71 71 73 77 85 91 90 94 96 92 86 79 71 66 65 67 71 71
30 32 43 30 40 45 43 49 31 34 44 55 63 70 79 84 86 80 80 80 81 81 76 69 61 55 55 56 57 58 63 63 67 71 78 85 87 89 94 96 92 86 81 79 75 76 79 75 72
34 37 37 48 53 56 48 40 29 33 37 51 61 62 71 76 78 85 86 84 82 78 69 61 57 57 56 54 55 59 64 63 68 76 82 83 86 88 94 94 93 90 87 85 79 78 80 81 82
30 36 45 49 44 38 37 39 34 25 25 47 58 60 61 62 64 63 68 70 70 65 60 61 59 56 57 57 59 60 66 75 78 82 87 89 90 95 96 97 98 97 95 92 91 90 89 88 86
39 40 38 41 46 43 40 31 29 26 25 42 54 60 62 65 61 60 59 54 55 55 54 60 59 62 71 70 68 74 82 82 87 96 95 93 94 95 93 97 99 98 96 96 93 92 91 91 90
33 35 37 37 39 49 44 36 31 29 28 38 50 58 60 63 68 71 71 73 69 65 61 62 64 77 77 74 78 77 84 85 88 93 96 97 95 94 94 94 95 94 94 91 91 89 88 87 85